[[{"header":{"parameterUnit":"m.s-1","parameterCategory":1,"la1":30.2991,"la2":30.254,"lo1":-89.0895,"lo2":-89.0444,"dy":0.0017,"dx":0.0017,"nx":28,"ny":28,"refTime":"2025-09-17T21:00:00:Z","depth":0,"parameterNumber":2,"parameterNumberName":"U-component_of_WINDS"},"data":[0,0,0,0,0,0,0,0,0,0,0,0,0,0,0,0,0,0,0,0,0,0,0,0,0,0,0,0,0,0,0,0,0,0,0,0,0,0,0,0,0,0,0,0,0,0,0,0,0,0,0,0,0,0,0,0,0,0,-0.3419,-0.3419,0,-0.3468,-0.3469,-0.3469,-0.3433,-0.3431,-0.343,-0.3428,-0.3482,-0.3485,-0.3488,0,0,0,0,0,0,0,0,0,0,0,0,0,-0.3296,-0.3298,-0.3419,-0.3419,-0.342,-0.3468,-0.3469,-0.3469,-0.3433,-0.3431,-0.3429,-0.3427,-0.3481,-0.3485,-0.3488,0,0,0,0,0,0,0,0,0,0,0,0,0,-0.3348,-0.3299,-0.3418,-0.3407,-0.3407,-0.3468,-0.3469,-0.347,-0.3434,-0.3431,-0.3429,-0.3427,-0.348,-0.3485,-0.3489,-0.3564,0,0,-0.3502,-0.3504,0,0,0,0,0,0,0,0,-0.3345,-0.3352,-0.3409,-0.3408,-0.3408,-0.3442,-0.3445,-0.3502,-0.3434,-0.3424,-0.3428,-0.3425,-0.3471,-0.3476,-0.3491,-0.3567,-0.3569,-0.3503,-0.3506,-0.3507,-0.3509,0,0,0,0,0,0,0,-0.3341,-0.335,-0.3438,-0.3409,-0.3409,-0.3401,-0.3406,-0.3456,-0.346,-0.3424,-0.3422,-0.3428,-0.3471,-0.3487,-0.3492,-0.357,-0.3503,-0.3507,-0.3509,-0.3511,-0.3711,-0.3714,0,0,0,0,0,0,-0.3338,-0.3347,-0.3437,-0.344,-0.337,-0.3405,-0.3411,-0.3433,-0.346,-0.3461,-0.343,-0.3426,-0.348,-0.3487,-0.3494,-0.3585,-0.3507,-0.3512,-0.3514,-0.3709,-0.3712,-0.3715,0,0,0,0,0,0,-0.3336,-0.3347,-0.3435,-0.3393,-0.3403,-0.341,-0.3436,-0.3436,-0.3452,-0.3464,-0.3465,-0.3446,-0.3479,-0.3487,-0.3547,-0.3586,-0.3514,-0.3518,-0.3706,-0.371,-0.3713,-0.3767,0,0,0,0,0,0,-0.3332,-0.3346,-0.3374,-0.3394,-0.3406,-0.3487,-0.3438,-0.3438,-0.3459,-0.3454,-0.3479,-0.3481,-0.3477,-0.3541,-0.3551,-0.3591,-0.3521,-0.3702,-0.3707,-0.3712,-0.3762,-0.3772,-0.3781,0,0,0,0,0,-0.3328,-0.3388,-0.3376,-0.3387,-0.3441,-0.3489,-0.3496,-0.349,-0.3462,-0.3491,-0.3499,-0.348,-0.3579,-0.3547,-0.3559,-0.36,-0.37,-0.3706,-0.3712,-0.3757,-0.377,-0.3781,0,0,0,0,0,0,-0.3374,-0.339,-0.3377,-0.3444,-0.3465,-0.3483,-0.3519,-0.3504,-0.3534,-0.3529,-0.3521,-0.3527,-0.359,-0.3601,-0.3564,-0.3675,-0.3635,-0.3644,-0.3666,-0.3678,-0.3688,-0.3685,-0.3525,0,0,0,0,0,-0.3391,-0.3428,-0.3441,-0.3499,-0.351,-0.3513,-0.3533,-0.3527,-0.3549,-0.3558,-0.357,-0.3593,-0.363,-0.3654,-0.3688,-0.3762,-0.3768,-0.3796,-0.3806,-0.3814,-0.3822,-0.3863,-0.3877,-0.3735,-0.3735,-0.3735,0,0,-0.3429,-0.3442,-0.3466,-0.3508,-0.3524,-0.3563,-0.3521,-0.3564,-0.3593,-0.3565,-0.3622,-0.3632,-0.3657,-0.3724,-0.3755,-0.3735,-0.3862,-0.3822,-0.3828,-0.3832,-0.3871,-0.3884,-0.3896,-0.3739,-0.3738,-0.3737,0,0,-0.3518,-0.3531,-0.3581,-0.3597,-0.3621,-0.3622,-0.3634,-0.3653,-0.3659,-0.3715,-0.3695,-0.373,-0.3793,-0.3812,-0.383,-0.3925,-0.3909,-0.3936,-0.3988,-0.4028,-0.4039,-0.4049,-0.4085,-0.4097,-0.3944,-0.3944,-0.3944,0,-0.3562,-0.3619,-0.3609,-0.3654,-0.3674,-0.3648,-0.37,-0.3716,-0.3751,-0.3765,-0.3743,-0.3821,-0.3836,-0.3908,-0.3931,-0.3946,-0.3961,-0.3935,-0.4038,-0.4048,-0.4057,-0.4091,-0.4104,-0.3947,-0.3947,-0.3947,-0.3946,0,-0.3673,-0.3713,-0.3751,-0.3783,-0.3807,-0.3855,-0.3854,-0.3879,-0.387,-0.3874,-0.3933,-0.395,-0.3987,-0.4003,-0.3996,-0.4075,-0.4062,-0.4039,-0.3999,-0.4074,-0.4106,-0.4119,-0.3952,-0.3951,-0.395,-0.3949,0,0,-0.3793,-0.3819,-0.3833,-0.3848,-0.3871,-0.3903,-0.395,-0.3985,-0.4008,-0.4032,-0.4072,-0.4125,-0.4104,-0.4125,-0.4119,-0.4153,-0.4229,-0.4126,-0.4127,-0.4146,-0.4319,-0.4338,-0.4353,-0.4218,-0.422,-0.4222,-0.4317,0,-0.3884,-0.3965,-0.3958,-0.4035,-0.4073,-0.4049,-0.409,-0.4109,-0.4114,-0.4148,-0.4153,-0.4191,-0.4159,-0.4172,-0.4205,-0.4213,-0.4264,-0.4206,-0.4257,-0.4259,-0.4254,-0.4369,-0.4389,-0.4478,-0.433,-0.4332,-0.4333,0,-0.4002,-0.4029,-0.411,-0.4128,-0.4143,-0.4181,-0.4213,-0.4244,-0.4266,-0.4267,-0.4289,-0.4277,-0.4326,-0.4284,-0.4351,-0.4312,-0.4332,-0.4339,-0.4343,-0.4349,-0.4302,-0.438,-0.4506,-0.452,-0.4352,-0.4351,-0.4349,0,-0.4084,-0.414,-0.4196,-0.4209,-0.4231,-0.4258,-0.4269,-0.4288,-0.431,-0.4338,-0.4353,-0.4386,-0.4406,-0.4433,-0.443,-0.44,-0.45,-0.4457,-0.4504,-0.4504,-0.4528,-0.4527,-0.4661,-0.4537,-0.4537,-0.4537,-0.4537,0,-0.4187,-0.4238,-0.4233,-0.4268,-0.4325,-0.4315,-0.4372,-0.438,-0.4397,-0.4434,-0.4414,-0.445,-0.4444,-0.4479,-0.4477,-0.4535,-0.4543,-0.4546,-0.4546,-0.4549,-0.4549,-0.4564,-0.4559,-0.4541,-0.454,-0.4539,-0.4538,0,-0.4289,-0.4288,-0.4347,-0.4363,-0.4368,-0.4409,-0.4423,-0.4457,-0.4459,-0.4505,-0.4516,-0.452,-0.4561,-0.4561,-0.4607,-0.4606,-0.4677,-0.4668,-0.467,-0.4669,-0.4716,-0.4712,-0.4866,-0.4886,-0.4748,-0.4749,-0.475,0,-0.4357,-0.4395,-0.4414,-0.4437,-0.4449,-0.4486,-0.4507,-0.45,-0.4524,-0.4551,-0.4582,-0.462,-0.4651,-0.4717,-0.4725,-0.4761,-0.4754,-0.4805,-0.476,-0.4762,-0.4757,-0.4756,-0.476,-0.4815,-0.4817,-0.4818,-0.4819,0,-0.4477,-0.4474,-0.4505,-0.4537,-0.4564,-0.4588,-0.4611,-0.4631,-0.4626,-0.4654,-0.4694,-0.4718,-0.4765,-0.4804,-0.4838,-0.4851,-0.4835,-0.4833,-0.4846,-0.4851,-0.4851,-0.4854,-0.4696,-0.483,-0.4829,-0.4828,-0.4828,-0.4827,-0.4565,-0.4598,-0.4617,-0.4653,-0.4669,-0.4691,-0.4723,-0.4729,-0.4762,-0.4799,-0.4792,-0.4838,-0.486,-0.4904,-0.4919,-0.4955,-0.4938,-0.4956,-0.4961,-0.4967,-0.4973,-0.4843,-0.4961,-0.4961,-0.4961,-0.4961,-0.496,0,-0.4685,-0.4696,-0.4729,-0.4761,-0.479,-0.477,-0.4794,-0.482,-0.486,-0.4881,-0.4911,-0.4958,-0.4996,-0.5006,-0.5043,-0.507,-0.5064,-0.5081,-0.508,-0.5083,-0.4985,-0.4971,-0.5085,-0.5085,-0.5085,-0.5085,-0.5085,-0.5085,-0.4752,-0.4807,-0.4807,-0.487,-0.4881,-0.4925,-0.494,-0.4961,-0.4977,-0.503,-0.5061,-0.5067,-0.5084,-0.5122,-0.5156,-0.5158,-0.5173,-0.5193,-0.5193,-0.5102,-0.509,-0.5078,-0.5065,-0.5196,-0.5196,-0.5287,-0.5288,-0.5289]},{"header":{"parameterUnit":"m.s-1","parameterCategory":1,"la1":30.2991,"la2":30.254,"lo1":-89.0895,"lo2":-89.0444,"dy":0.0017,"dx":0.0017,"nx":28,"ny":28,"refTime":"2025-09-17T21:00:00:Z","depth":0,"parameterNumber":3,"parameterNumberName":"V-component_of_WINDS"},"data":[0,0,0,0,0,0,0,0,0,0,0,0,0,0,0,0,0,0,0,0,0,0,0,0,0,0,0,0,0,0,0,0,0,0,0,0,0,0,0,0,0,0,0,0,0,0,0,0,0,0,0,0,0,0,0,0,0,0,-1.4045,-1.4046,0,-1.4097,-1.4098,-1.4098,-1.4076,-1.4075,-1.4074,-1.4073,-1.4125,-1.4127,-1.413,0,0,0,0,0,0,0,0,0,0,0,0,0,-1.3927,-1.3929,-1.4045,-1.4046,-1.4047,-1.4097,-1.4098,-1.4098,-1.4076,-1.4075,-1.4073,-1.4072,-1.4124,-1.4127,-1.413,0,0,0,0,0,0,0,0,0,0,0,0,0,-1.3979,-1.393,-1.4045,-1.4042,-1.4042,-1.4097,-1.4098,-1.4099,-1.4077,-1.4075,-1.4073,-1.4071,-1.4123,-1.4127,-1.413,-1.4192,0,0,-1.4142,-1.4144,0,0,0,0,0,0,0,0,-1.3976,-1.3983,-1.4042,-1.4042,-1.4042,-1.4078,-1.4075,-1.413,-1.4077,-1.4064,-1.4072,-1.407,-1.4111,-1.4115,-1.4129,-1.4194,-1.4196,-1.4142,-1.4145,-1.4146,-1.4148,0,0,0,0,0,0,0,-1.3972,-1.3981,-1.4066,-1.4042,-1.4043,-1.4037,-1.4043,-1.4085,-1.4097,-1.4065,-1.4063,-1.407,-1.4111,-1.4126,-1.413,-1.4197,-1.4142,-1.4146,-1.4148,-1.415,-1.4316,-1.4318,0,0,0,0,0,0,-1.3969,-1.3978,-1.4064,-1.4067,-1.4004,-1.4041,-1.4047,-1.4069,-1.4096,-1.4099,-1.4071,-1.4068,-1.412,-1.4126,-1.4132,-1.4207,-1.4146,-1.415,-1.4152,-1.4314,-1.4316,-1.4319,0,0,0,0,0,0,-1.3966,-1.3976,-1.4062,-1.4022,-1.4033,-1.4045,-1.407,-1.4071,-1.4086,-1.4101,-1.4103,-1.4084,-1.4119,-1.4127,-1.4177,-1.4208,-1.4152,-1.4155,-1.4311,-1.4315,-1.4318,-1.4356,0,0,0,0,0,0,-1.3963,-1.3976,-1.3999,-1.4023,-1.4035,-1.4107,-1.4072,-1.4073,-1.4092,-1.4089,-1.4114,-1.4117,-1.4118,-1.4172,-1.4181,-1.4213,-1.4158,-1.4309,-1.4313,-1.4317,-1.4352,-1.4361,-1.4367,0,0,0,0,0,-1.3959,-1.4007,-1.4,-1.4011,-1.4064,-1.4109,-1.4115,-1.4116,-1.4095,-1.4119,-1.4129,-1.4116,-1.4203,-1.4177,-1.4188,-1.4221,-1.4307,-1.4312,-1.4316,-1.4349,-1.4359,-1.4367,0,0,0,0,0,0,-1.3987,-1.401,-1.4003,-1.4061,-1.4083,-1.4105,-1.4135,-1.4126,-1.4154,-1.415,-1.4149,-1.4155,-1.4208,-1.4219,-1.419,-1.4282,-1.4252,-1.4259,-1.4273,-1.4283,-1.429,-1.4287,-1.4161,0,0,0,0,0,-1.4,-1.4034,-1.4052,-1.4102,-1.4113,-1.4122,-1.4141,-1.414,-1.4163,-1.4172,-1.4185,-1.4208,-1.424,-1.4262,-1.4292,-1.4353,-1.4359,-1.4381,-1.4389,-1.4395,-1.4402,-1.4436,-1.4447,-1.4334,-1.4334,-1.4334,0,0,-1.4027,-1.4044,-1.4065,-1.4108,-1.4125,-1.416,-1.413,-1.4168,-1.4195,-1.4177,-1.4227,-1.4238,-1.4262,-1.4319,-1.4345,-1.433,-1.4434,-1.4401,-1.4406,-1.4409,-1.4442,-1.4453,-1.4462,-1.4338,-1.4337,-1.4337,0,0,-1.4094,-1.411,-1.4154,-1.4172,-1.4198,-1.4204,-1.4214,-1.4238,-1.4244,-1.4294,-1.4282,-1.4313,-1.4369,-1.4387,-1.4404,-1.448,-1.4469,-1.449,-1.4529,-1.4563,-1.4572,-1.458,-1.4608,-1.4619,-1.4496,-1.4496,-1.4496,0,-1.4125,-1.4178,-1.4177,-1.4218,-1.4237,-1.4223,-1.4268,-1.4285,-1.4319,-1.4333,-1.4316,-1.4387,-1.4402,-1.4464,-1.4482,-1.4496,-1.4509,-1.4487,-1.4571,-1.4579,-1.4586,-1.4613,-1.4624,-1.4498,-1.4498,-1.4498,-1.4497,0,-1.4215,-1.4252,-1.4284,-1.4319,-1.4342,-1.4384,-1.439,-1.4413,-1.441,-1.4417,-1.4468,-1.4486,-1.4521,-1.4535,-1.4532,-1.4597,-1.4587,-1.457,-1.454,-1.4599,-1.4625,-1.4635,-1.4502,-1.4501,-1.45,-1.45,0,0,-1.4303,-1.4337,-1.4349,-1.4365,-1.4393,-1.4422,-1.4463,-1.4498,-1.4519,-1.4543,-1.4579,-1.4626,-1.4611,-1.463,-1.4629,-1.4658,-1.4719,-1.4638,-1.4639,-1.4654,-1.4794,-1.4807,-1.4819,-1.4712,-1.4714,-1.4715,-1.4792,0,-1.4374,-1.4448,-1.4449,-1.4516,-1.4551,-1.4539,-1.4575,-1.4596,-1.4604,-1.4635,-1.4643,-1.4678,-1.4655,-1.4667,-1.4695,-1.4706,-1.4747,-1.47,-1.4746,-1.4747,-1.4742,-1.4833,-1.4847,-1.4919,-1.4802,-1.4804,-1.4805,0,-1.4467,-1.4496,-1.4567,-1.4592,-1.4606,-1.4639,-1.4672,-1.4701,-1.4725,-1.4729,-1.475,-1.4745,-1.4787,-1.4755,-1.4814,-1.4782,-1.48,-1.4808,-1.4811,-1.4817,-1.4781,-1.4843,-1.4942,-1.4953,-1.482,-1.4819,-1.4818,0,-1.4526,-1.4582,-1.4633,-1.4647,-1.4676,-1.4699,-1.4713,-1.4735,-1.4756,-1.4784,-1.4798,-1.483,-1.4848,-1.4873,-1.4877,-1.4852,-1.4937,-1.4904,-1.4942,-1.4942,-1.4962,-1.4961,-1.5067,-1.4971,-1.4971,-1.497,-1.497,0,-1.4607,-1.4652,-1.466,-1.4691,-1.4741,-1.4742,-1.4791,-1.4802,-1.4822,-1.4855,-1.4845,-1.4877,-1.4878,-1.4911,-1.4913,-1.4963,-1.4971,-1.4976,-1.4976,-1.4978,-1.4977,-1.4991,-1.4987,-1.4973,-1.4973,-1.4972,-1.4972,0,-1.4682,-1.4689,-1.4744,-1.4767,-1.4774,-1.481,-1.483,-1.486,-1.4867,-1.4909,-1.4919,-1.4931,-1.4968,-1.4974,-1.5017,-1.5019,-1.5079,-1.5074,-1.5072,-1.5072,-1.511,-1.5107,-1.5231,-1.5248,-1.5138,-1.5139,-1.514,0,-1.4734,-1.4769,-1.4796,-1.4818,-1.4833,-1.4868,-1.489,-1.4891,-1.4914,-1.4945,-1.4971,-1.5008,-1.5038,-1.5098,-1.511,-1.5144,-1.514,-1.5181,-1.5145,-1.5146,-1.5143,-1.5142,-1.5146,-1.5189,-1.519,-1.5191,-1.5191,0,-1.4827,-1.4829,-1.4861,-1.4895,-1.4921,-1.4948,-1.4972,-1.4991,-1.4996,-1.5022,-1.5061,-1.5084,-1.5129,-1.5166,-1.52,-1.5213,-1.5204,-1.5202,-1.5213,-1.5216,-1.5215,-1.5218,-1.5093,-1.52,-1.5199,-1.5199,-1.5198,-1.5198,-1.4893,-1.4924,-1.4948,-1.4985,-1.5004,-1.5027,-1.5057,-1.5068,-1.5101,-1.5139,-1.5137,-1.518,-1.5204,-1.5248,-1.5263,-1.5297,-1.5284,-1.5299,-1.5304,-1.5308,-1.5313,-1.5208,-1.5303,-1.5303,-1.5302,-1.5302,-1.5302,0,-1.4987,-1.5002,-1.5035,-1.5071,-1.51,-1.5088,-1.5116,-1.5141,-1.5179,-1.5202,-1.5231,-1.5277,-1.5313,-1.5327,-1.5363,-1.5387,-1.5384,-1.5397,-1.5396,-1.5399,-1.5321,-1.531,-1.5399,-1.5399,-1.5399,-1.5399,-1.5399,-1.5399,-1.5039,-1.5091,-1.5096,-1.5157,-1.5171,-1.5214,-1.5231,-1.5253,-1.5272,-1.5323,-1.5353,-1.5363,-1.5383,-1.542,-1.5452,-1.5456,-1.547,-1.5485,-1.5487,-1.5414,-1.5405,-1.5395,-1.5384,-1.5488,-1.5488,-1.5562,-1.5563,-1.5563]}]]